{"data":{"norad_id":32954,"epoch":"2026-09-20T05:05:15.427104Z","epoch_age_seconds":43262,"freshness":"FRESH","line1":"1 32954U 08025B   26263.21198411 -.00000006  00000+0 -11667-3 0  9995","line2":"2 32954  82.4999 298.4001 0021629 120.8492 326.3106 12.42760831831171","mean_motion":12.42760831,"eccentricity":0.0021629,"inclination_deg":82.4999,"raan_deg":298.4001,"arg_perigee_deg":120.8492,"mean_anomaly_deg":326.3106,"bstar":-0.00011667,"rev_number":83117,"period_min":115.8710480794,"perigee_km":1477.8927111009,"apogee_km":1511.949986907,"semimajor_km":7873.0583490039,"source":"CELESTRAK","updated_at":"2026-09-20T09:00:13.693109Z"}}